TimePDT,TemperatureF,Dew PointF,Humidity,Sea Level PressureIn,VisibilityMPH,Wind Direction,Wind SpeedMPH,Gust SpeedMPH,PrecipitationIn,Events,Conditions,WindDirDegrees,DateUTC
12:55 AM,52.0,46.0,80,30.01,8.0,Calm,Calm,-,N/A,,Clear,0,2013-03-24 07:55:00
1:55 AM,50.0,44.1,80,30.01,8.0,Calm,Calm,-,N/A,,Clear,0,2013-03-24 08:55:00
2:55 AM,52.0,45.0,77,30.01,9.0,East,4.6,-,N/A,,Clear,100,2013-03-24 09:55:00
3:55 AM,50.0,43.0,77,30.00,9.0,Calm,Calm,-,N/A,,Clear,0,2013-03-24 10:55:00
4:55 AM,48.0,41.0,77,30.01,9.0,ENE,3.5,-,N/A,,Clear,60,2013-03-24 11:55:00
5:55 AM,48.9,39.9,71,30.01,10.0,Calm,Calm,-,N/A,,Clear,0,2013-03-24 12:55:00
6:55 AM,46.9,41.0,80,30.02,7.0,Calm,Calm,-,N/A,,Clear,0,2013-03-24 13:55:00
7:55 AM,48.0,41.0,77,30.04,7.0,Calm,Calm,-,N/A,,Clear,0,2013-03-24 14:55:00
8:55 AM,55.0,45.0,69,30.05,7.0,Calm,Calm,-,N/A,,Clear,0,2013-03-24 15:55:00
9:55 AM,62.1,44.1,52,30.04,9.0,Calm,Calm,-,N/A,,Clear,0,2013-03-24 16:55:00
10:55 AM,66.0,46.0,48,30.03,10.0,Variable,3.5,-,N/A,,Clear,0,2013-03-24 17:55:00
11:55 AM,70.0,45.0,41,30.01,10.0,SW,9.2,-,N/A,,Clear,220,2013-03-24 18:55:00
12:55 PM,69.1,52.0,54,30.00,8.0,WSW,11.5,-,N/A,,Clear,250,2013-03-24 19:55:00
1:55 PM,70.0,48.0,46,29.99,10.0,WSW,10.4,-,N/A,,Clear,250,2013-03-24 20:55:00
2:55 PM,69.1,48.9,49,29.97,10.0,WSW,10.4,-,N/A,,Clear,250,2013-03-24 21:55:00
3:55 PM,69.1,48.9,49,29.96,10.0,WSW,10.4,-,N/A,,Clear,240,2013-03-24 22:55:00
4:55 PM,66.9,48.0,51,29.94,10.0,WSW,8.1,-,N/A,,Clear,250,2013-03-24 23:55:00
5:55 PM,64.9,50.0,58,29.93,10.0,Calm,Calm,-,N/A,,Clear,0,2013-03-25 00:55:00
6:55 PM,63.0,50.0,63,29.93,10.0,West,4.6,-,N/A,,Clear,270,2013-03-25 01:55:00
7:55 PM,61.0,46.9,60,29.93,10.0,Calm,Calm,-,N/A,,Clear,0,2013-03-25 02:55:00
8:55 PM,59.0,45.0,60,29.93,10.0,NW,4.6,-,N/A,,Clear,310,2013-03-25 03:55:00
9:55 PM,55.9,48.0,75,29.94,10.0,WNW,5.8,-,N/A,,Clear,290,2013-03-25 04:55:00
10:55 PM,55.0,46.9,74,29.95,9.0,Calm,Calm,-,N/A,,Clear,0,2013-03-25 05:55:00
11:55 PM,53.1,46.0,77,29.95,9.0,Calm,Calm,-,N/A,,Clear,0,2013-03-25 06:55:00